Regional Weather Roundup
Issued by NWS Cleveland, OH

Home | Current Version | Previous Version | Text Only | Print | Product List | Glossary Off
Versions: 1 2 3 4 5 6 7 8 9 10 11 12 13 14 15 16 17 18 19 20 21 22 23 24 25 26 27 28 29 30 31 32 33 34 35 36 37 38 39 40 41 42 43 44 45 46 47 48 49 50

000
ASUS41 KCLE 210712
RWRCLE
OHIO REGIONAL WEATHER ROUNDUP
NATIONAL WEATHER SERVICE WILMINGTON, OH
200 AM EST TUE FEB 21 2017

NOTE: "FAIR" INDICATES FEW OR NO CLOUDS BELOW 12,000 FEET WITH NO
SIGNIFICANT WEATHER AND/OR OBSTRUCTIONS TO VISIBILITY.

OHZ001>008-015>018-024>027-034-035-043-044-210800-
   NORTHWEST OHIO

CITY           SKY/WX    TMP DP  RH WIND       PRES   REMARKS
DEFIANCE       FAIR      38  33  82 E5        30.04F
FINDLAY        FAIR      47  37  68 SE8       30.03F
TOLEDO EXPRESS FAIR      37  34  89 E6        30.04F
TOLEDO EXEC    FAIR      38  34  85 CALM      30.06F
LIMA           FAIR      50  41  71 S10       30.03S
$$

OHZ009>014-019>023-028>033-038-089-210800-
   NORTHEAST OHIO

CITY           SKY/WX    TMP DP  RH WIND       PRES   REMARKS
CLE-HOPKINS    CLOUDY    49  31  49 SE9       30.10F
CLE-LAKEFRONT  FAIR      39  35  86 SE3       30.07F
CUY CO. ARPT   NOT AVBL
LORAIN-ELYRIA  FAIR      46  32  58 S6        30.08F
ASHTABULA      FAIR      46  32  58 S8        30.12F
AKRON-CANTON   MOCLDY    49  30  48 SE8       30.09F
WOOSTER        FAIR      42  36  79 S5        30.09F
MANSFIELD      FAIR      50  36  58 SE10      30.05F
YOUNGSTOWN     CLOUDY    47  30  51 E13       30.11F
$$

OHZ042-051>053-060>062-070>072-077>081-210800-
  SOUTHWEST OHIO

CITY           SKY/WX    TMP DP  RH WIND       PRES   REMARKS
CINC-COVINGTON MOCLDY    53  39  59 SE7       30.03F
CINC-LUNKEN    FAIR      45  43  93 CALM      30.05F
HAMILTON       FAIR      47  41  80 CALM      30.05F
DAYTON         CLOUDY    49  41  74 S7        30.05S
WRIGHT-PAT AFB CLOUDY    44  44  99 CALM      30.04F
DAYTON GENERAL FAIR      54  40  59 SE8       30.04S
WILMINGTON     FAIR      48  40  73 SE7       30.04F
$$

OHZ036-037-039>041-045>050-054>059-063>069-073>076-082>088-210800-
  CENTRAL AND SOUTHEAST OHIO

CITY           SKY/WX    TMP DP  RH WIND       PRES   REMARKS
COLUMBUS       CLOUDY    51  38  60 E6        30.06F
OSU AIRPORT    FAIR      49  40  71 SE6       30.06F
BOLTON FIELD   FAIR      47  41  81 E3        30.06F
RICKENBACK AFB FAIR      43  40  91 E5        30.06F
NEWARK         FAIR      40  37  89 CALM      30.07F
MARION         FAIR      48  37  65 S9        30.06F
LANCASTER      FAIR      42  39  89 CALM      30.07F
ZANESVILLE     FAIR      45  37  73 CALM      30.08F
NEW PHILLY     FAIR      40  37  89 CALM      30.10F
$$




USA.gov is the U.S. government's official web portal to all federal, state and local government web resources and services.